FW4606 Weather Reports


time (UTC)temp
F
wind
direction
speed
knots
gust
knots
rain 1hr
in
rain 24hr
in
rain mn
in
humidity
%
barometer
mb
20260502203413 67 211 3.5 7.0 0.00 0.00 0.00 38 1012.5
20260502203137 67 165 3.5 6.1 0.00 0.00 0.00 37 1012.6
20260502202401 67 186 4.3 10.4 0.00 0.00 0.00 35 1012.7
20260502201855 67 169 4.3 10.4 0.00 0.00 0.00 37 1012.8
20260502201621 67 207 3.5 7.8 0.00 0.00 0.00 37 1012.9
20260502200843 67 174 2.6 6.1 0.00 0.00 0.00 37 1013.0
20260502200337 67 162 3.5 7.0 0.00 0.00 0.00 37 1013.1
20260502195831 66 156 3.5 7.8 0.00 0.00 0.00 37 1013.2
20260502195325 66 174 3.5 7.8 0.00 0.00 0.00 35 1013.4
20260502194819 67 145 3.5 7.8 0.00 0.00 0.00 38 1013.5
20260502194313 67 205 3.5 7.8 0.00 0.00 0.00 40 1013.5
20260502193807 66 239 3.5 7.8 0.00 0.00 0.00 37 1013.7
20260502193533 66 222 3.5 9.6 0.00 0.00 0.00 37 1013.8
20260502192755 65 252 2.6 9.6 0.00 0.00 0.00 34 1013.9
20260502192248 65 208 2.6 7.0 0.00 0.00 0.00 37 1014.1
20260502191743 65 217 3.5 7.8 0.00 0.00 0.00 40 1014.1
20260502191237 65 201 3.5 7.8 0.00 0.00 0.00 35 1014.3
20260502190731 64 257 2.6 7.8 0.00 0.00 0.00 38 1014.4
20260502190455 64 262 3.5 8.7 0.00 0.00 0.00 36 1014.5
20260502185718 63 224 2.6 8.7 0.00 0.00 0.00 37 1014.6
20260502185446 63 169 2.6 6.1 0.00 0.00 0.00 40 1014.6
20260502184707 62 200 2.6 6.1 0.00 0.00 0.00 38 1014.7
20260502184201 63 181 3.5 7.0 0.00 0.00 0.00 37 1014.8
20260502183655 63 203 4.3 7.0 0.00 0.00 0.00 38 1014.9
20260502183149 63 226 4.3 7.8 0.00 0.00 0.00 36 1015.0
20260502182643 62 170 3.5 7.8 0.00 0.00 0.00 40 1015.1
20260502182137 63 136 3.5 7.8 0.00 0.00 0.00 36 1015.2
20260502181631 64 245 3.5 7.8 0.00 0.00 0.00 38 1015.2
20260502181357 63 215 3.5 7.8 0.00 0.00 0.00 39 1015.3
20260502180620 62 207 3.5 7.8 0.00 0.00 0.00 37 1015.3
20260502180614 62 135 3.5 7.8 0.00 0.00 0.00 36 1015.4
20260502170507 60 170 2.6 7.0 0.00 0.00 0.00 39 1016.4
20260502163937 60 167 2.6 6.1 0.00 0.00 0.00 39 1016.8
20260502163704 59 156 2.6 7.0 0.00 0.00 0.00 42 1016.8
20260502162932 59 239 4.3 7.0 0.00 0.00 0.00 39 1016.9
20260502162705 59 200 3.5 7.0 0.00 0.00 0.00 39 1016.9
20260502161933 59 218 3.5 6.1 0.00 0.00 0.00 39 1016.9
20260502161703 59 186 2.6 6.1 0.00 0.00 0.00 41 1017.0
20260502161207 58 192 2.6 6.1 0.00 0.00 0.00 39 1017.3
20260502160433 58 264 2.6 7.0 0.00 0.00 0.00 39 1017.3
20260502151931 56 166 2.6 7.0 0.00 0.00 0.00 46 1017.7
20260502151431 56 210 0.9 4.3 0.00 0.00 0.00 49 1017.8
20260502150926 55 142 0.9 4.3 0.00 0.00 0.00 51 1017.9
20260502150419 55 175 1.7 4.3 0.00 0.00 0.00 51 1017.9
20260502130359 39 172 0.0 1.7 0.00 0.00 0.00 85 1018.6
20260502130126 38 146 0.0 0.9 0.00 0.00 0.00 90 1018.6
20260502123358 33 150 0.0 0.0 0.00 0.00 0.00 94 1018.6
20260502122857 33 150 0.0 0.0 0.00 0.00 0.00 95 1018.5
20260502122358 32 150 0.0 0.0 0.00 0.00 0.00 95 1018.5
20260502121857 32 150 0.0 0.0 0.00 0.00 0.00 95 1018.5
20260502121358 32 150 0.0 0.0 0.00 0.00 0.00 95 1018.5
20260502121128 31 150 0.0 0.0 0.00 0.00 0.00 95 1018.5
20260502120355 31 150 0.0 0.0 0.00 0.00 0.00 95 1018.5
20260502115855 31 150 0.0 0.0 0.00 0.00 0.00 95 1018.5
20260502115354 30 150 0.0 0.0 0.00 0.00 0.00 95 1018.5
20260502114859 29 150 0.0 0.0 0.00 0.00 0.00 95 1018.5
20260502114853 30 150 0.0 0.0 0.00 0.00 0.00 95 1018.6
20260502113853 29 150 0.0 0.0 0.00 0.00 0.00 95 1018.6
20260502113355 29 150 0.0 0.0 0.00 0.00 0.00 95 1018.5
20260502112855 29 150 0.0 0.0 0.00 0.00 0.00 94 1018.5
20260502112349 29 150 0.0 0.0 0.00 0.00 0.00 94 1018.5
20260502111850 29 150 0.0 0.0 0.00 0.00 0.00 94 1018.4
20260502111349 28 150 0.0 0.0 0.00 0.00 0.00 94 1018.4
20260502110849 28 150 0.0 0.0 0.00 0.00 0.00 94 1018.4
20260502110351 28 150 0.0 0.0 0.00 0.00 0.00 94 1018.4
20260502105849 28 150 0.0 0.0 0.00 0.00 0.00 94 1018.3
20260502105625 28 150 0.0 0.0 0.00 0.00 0.00 94 1018.4
20260502105351 28 150 0.0 0.0 0.00 0.00 0.00 94 1018.3
20260502104351 28 150 0.0 0.0 0.00 0.00 0.00 94 1018.3
20260502103846 28 150 0.0 0.0 0.00 0.00 0.00 94 1018.3
20260502103346 28 150 0.0 0.0 0.00 0.00 0.00 94 1018.3
20260502102851 28 150 0.0 0.0 0.00 0.00 0.00 93 1018.3
20260502102846 28 150 0.0 0.0 0.00 0.00 0.00 93 1018.3
20260502102119 28 150 0.0 0.0 0.00 0.00 0.00 93 1018.3
20260502101346 28 150 0.0 0.0 0.00 0.00 0.00 93 1018.3
20260502100847 28 150 0.0 0.0 0.00 0.00 0.00 93 1018.3
20260502100345 28 150 0.0 0.0 0.00 0.00 0.00 93 1018.3
20260502100118 28 150 0.0 0.0 0.00 0.00 0.00 93 1018.3
20260502090839 29 150 0.0 0.0 0.00 0.00 0.00 93 1018.0
20260502090608 29 150 0.0 0.0 0.00 0.00 0.00 92 1018.0
20260502071323 30 150 0.0 0.0 0.00 0.00 0.00 90 1018.2
20260502070821 31 150 0.0 0.0 0.00 0.00 0.00 90 1018.3
20260502070552 31 150 0.0 0.0 0.00 0.00 0.00 90 1018.3
20260502065818 31 150 0.0 0.0 0.00 0.00 0.00 90 1018.3
20260502065321 31 150 0.0 0.0 0.00 0.00 0.00 90 1018.3
20260502064818 31 150 0.0 0.0 0.00 0.00 0.00 90 1018.4
20260502064317 32 150 0.0 0.0 0.00 0.00 0.00 90 1018.4
20260502063814 31 150 0.0 0.0 0.00 0.00 0.00 89 1018.4
20260502063314 32 150 0.0 0.0 0.00 0.00 0.00 89 1018.5
20260502062815 32 150 0.0 0.0 0.00 0.00 0.00 89 1018.5
20260502062544 32 150 0.0 0.0 0.00 0.00 0.00 88 1018.5
20260502061817 33 150 0.0 0.0 0.00 0.00 0.00 87 1018.5
20260502061811 32 150 0.0 0.0 0.00 0.00 0.00 87 1018.5
20260502060814 33 150 0.0 0.0 0.00 0.00 0.00 87 1018.5
20260502060810 33 150 0.0 0.0 0.00 0.00 0.00 87 1018.5
20260502055805 34 150 0.0 0.0 0.00 0.00 0.00 87 1018.5
20260502055259 34 150 0.0 0.0 0.00 0.00 0.00 88 1018.5
20260502054752 33 150 0.0 0.0 0.00 0.00 0.00 87 1018.5
20260502054245 34 150 0.0 0.0 0.00 0.00 0.00 87 1018.6
20260502053739 33 150 0.0 0.0 0.00 0.00 0.00 87 1018.6
20260502053233 33 150 0.0 0.0 0.00 0.00 0.00 86 1018.6
20260502052727 33 150 0.0 0.0 0.00 0.00 0.00 87 1018.6
20260502052453 33 150 0.0 0.0 0.00 0.00 0.00 87 1018.5
20260502051715 33 150 0.0 0.0 0.00 0.00 0.00 86 1018.5
20260502051209 33 150 0.0 0.0 0.00 0.00 0.00 86 1018.5
20260502050936 33 150 0.0 0.0 0.00 0.00 0.00 85 1018.5
20260502050159 33 150 0.0 0.0 0.00 0.00 0.00 84 1018.6
20260502045652 34 150 0.0 0.0 0.00 0.00 0.00 83 1018.6
20260502045145 34 150 0.0 0.0 0.00 0.00 0.00 84 1018.5
20260502044639 34 150 0.0 0.0 0.00 0.00 0.00 84 1018.5
20260502044133 34 151 0.0 0.0 0.00 0.00 0.00 86 1018.5
20260502043629 33 150 0.0 0.0 0.00 0.00 0.00 84 1018.5
20260502043122 33 151 0.0 0.0 0.00 0.00 0.00 84 1018.5
20260502042620 33 151 0.0 0.0 0.00 0.00 0.00 81 1018.5
20260502042117 33 150 0.0 0.0 0.00 0.00 0.00 81 1018.5
20260502041615 34 150 0.0 0.0 0.00 0.00 0.00 80 1018.5
20260502041112 34 150 0.0 0.0 0.00 0.00 0.00 80 1018.5
20260502040611 35 150 0.0 0.0 0.00 0.00 0.00 80 1018.5
20260502040110 35 151 0.0 0.0 0.00 0.00 0.00 80 1018.5
20260502035612 35 151 0.0 0.0 0.00 0.00 0.00 80 1018.5
20260502035108 35 150 0.0 0.0 0.00 0.00 0.00 79 1018.6
20260502034845 36 150 0.0 0.0 0.00 0.00 0.00 77 1018.6
20260502034608 36 150 0.0 0.0 0.00 0.00 0.00 77 1018.6
20260502033602 36 151 0.0 0.0 0.00 0.00 0.00 76 1018.6
20260502033103 37 150 0.0 0.0 0.00 0.00 0.00 76 1018.6
20260502032605 37 150 0.0 0.0 0.00 0.00 0.00 74 1018.6
20260502032100 37 150 0.0 0.0 0.00 0.00 0.00 74 1018.6
20260502031558 38 150 0.0 0.0 0.00 0.00 0.00 74 1018.5
20260502031057 38 150 0.0 0.0 0.00 0.00 0.00 75 1018.5
20260502030600 39 150 0.0 0.0 0.00 0.00 0.00 72 1018.6
20260502030329 39 150 0.0 0.0 0.00 0.00 0.00 66 1018.5
20260502025558 40 150 0.0 0.0 0.00 0.00 0.00 65 1018.6
20260502025057 41 151 0.0 0.0 0.00 0.00 0.00 65 1018.6
20260502024924 41 150 0.0 0.0 0.00 0.00 0.00 63 1018.5
20260502024836 41 150 0.0 0.0 0.00 0.00 0.00 63 1018.6
20260502023539 41 150 0.0 0.0 0.00 0.00 0.00 61 1018.5
20260502023032 42 151 0.0 0.0 0.00 0.00 0.00 60 1018.5
20260502022529 42 150 0.0 0.0 0.00 0.00 0.00 60 1018.5
20260502022030 42 150 0.0 0.0 0.00 0.00 0.00 60 1018.5
20260502021528 42 151 0.0 0.0 0.00 0.00 0.00 58 1018.4
20260502021302 42 150 0.0 0.0 0.00 0.00 0.00 59 1018.4
20260502020528 43 172 0.0 0.0 0.00 0.00 0.00 57 1018.3
20260502020027 44 172 0.0 0.0 0.00 0.00 0.00 55 1018.3
20260502015524 44 172 0.0 0.0 0.00 0.00 0.00 54 1018.2
20260502015255 44 172 0.0 0.0 0.00 0.00 0.00 54 1018.2
20260502014522 45 172 0.0 0.0 0.00 0.00 0.00 53 1018.1
20260502014023 45 172 0.0 0.0 0.00 0.00 0.00 51 1018.0
20260502013522 46 172 0.0 0.0 0.00 0.00 0.00 52 1018.0
20260502013255 46 172 0.0 0.0 0.00 0.00 0.00 52 1017.9
20260502012520 46 172 0.0 0.0 0.00 0.00 0.00 49 1017.9
20260502012021 47 172 0.0 0.0 0.00 0.00 0.00 50 1017.9
20260502011519 47 172 0.0 0.0 0.00 0.00 0.00 50 1017.9
20260502011022 48 172 0.0 0.9 0.00 0.00 0.00 48 1017.9
20260502010517 49 172 0.0 0.9 0.00 0.00 0.00 48 1017.9
20260502010017 49 160 0.0 0.9 0.00 0.00 0.00 46 1017.9
20260502005517 51 158 0.0 0.0 0.00 0.00 0.00 45 1017.8
20260502005243 51 149 0.0 0.0 0.00 0.00 0.00 44 1017.8
20260502004505 52 136 0.0 0.0 0.00 0.00 0.00 41 1017.8
20260502004232 53 158 0.0 0.9 0.00 0.00 0.00 39 1017.8
20260502003455 53 166 0.0 0.9 0.00 0.00 0.00 36 1017.7
20260502002947 53 156 0.0 0.0 0.00 0.00 0.00 37 1017.8
20260502002441 53 51 0.0 0.0 0.00 0.00 0.00 37 1017.9
20260502001935 53 167 0.0 0.0 0.00 0.00 0.00 40 1017.9
20260502001700 53 153 0.0 0.0 0.00 0.00 0.00 41 1017.9
20260502000923 53 154 0.0 0.0 0.00 0.00 0.00 39 1017.9
20260502000417 53 169 0.0 0.0 0.00 0.00 0.00 40 1017.9
20260501235911 54 105 0.0 1.7 0.00 0.00 0.00 35 1017.9
20260501235404 54 359 0.0 1.7 0.00 0.00 0.00 33 1017.9
20260501234859 54 354 0.0 1.7 0.00 0.00 0.00 31 1017.9
20260501234356 55 351 0.0 1.7 0.00 0.00 0.00 32 1017.9
20260501233855 54 6 0.0 0.9 0.00 0.00 0.00 34 1017.9
20260501233355 54 4 0.0 1.7 0.00 0.00 0.00 34 1017.9
20260501232852 54 113 0.0 1.7 0.00 0.00 0.00 36 1017.9
20260501232351 54 11 0.0 1.7 0.00 0.00 0.00 33 1017.9
20260501232118 55 180 0.0 1.7 0.00 0.00 0.00 37 1017.9
20260501231348 55 253 0.9 3.5 0.00 0.00 0.00 34 1017.9
20260501230849 55 0 0.9 4.3 0.00 0.00 0.00 31 1017.9
20260501230618 56 351 0.9 4.3 0.00 0.00 0.00 30 1017.9
20260501225847 56 146 0.9 3.5 0.00 0.00 0.00 31 1017.8
20260501225348 57 110 0.9 3.5 0.00 0.00 0.00 28 1017.9
20260501224848 58 316 0.9 4.3 0.00 0.00 0.00 29 1017.9
20260501224346 57 343 0.9 4.3 0.00 0.00 0.00 29 1017.9
20260501223846 58 359 0.9 3.5 0.00 0.00 0.00 28 1017.9
20260501223346 59 358 0.9 7.0 0.00 0.00 0.00 28 1017.9
20260501222846 59 75 0.9 7.0 0.00 0.00 0.00 28 1017.9
20260501222346 59 167 0.9 2.6 0.00 0.00 0.00 32 1017.9
20260501221847 58 226 0.9 3.5 0.00 0.00 0.00 37 1018.0
20260501221341 57 335 0.9 3.5 0.00 0.00 0.00 29 1017.9
20260501220834 58 131 0.9 3.5 0.00 0.00 0.00 30 1017.9
20260501220329 58 291 0.9 4.3 0.00 0.00 0.00 27 1018.0
20260501215823 59 359 1.7 5.2 0.00 0.00 0.00 28 1018.0
20260501215317 59 278 1.7 6.1 0.00 0.00 0.00 28 1018.0
20260501214811 60 72 0.9 5.2 0.00 0.00 0.00 31 1017.8
20260501214305 60 329 0.9 3.5 0.00 0.00 0.00 31 1018.0
20260501213759 60 280 0.9 5.2 0.00 0.00 0.00 34 1017.9
20260501213253 60 252 0.9 5.2 0.00 0.00 0.00 32 1018.0
20260501212747 59 67 0.9 4.3 0.00 0.00 0.00 32 1018.1
20260501212241 58 5 0.9 4.3 0.00 0.00 0.00 29 1018.0
20260501211734 58 219 0.9 4.3 0.00 0.00 0.00 33 1018.0
20260501211229 58 152 0.9 4.3 0.00 0.00 0.00 36 1018.0
20260501210729 57 141 0.9 3.5 0.00 0.00 0.00 31 1018.2
20260501210459 57 340 0.9 4.3 0.00 0.00 0.00 29 1018.3
20260501205727 58 356 0.9 5.2 0.00 0.00 0.00 29 1018.3
20260501205229 59 4 0.9 5.2 0.00 0.00 0.00 29 1018.2
20260501204726 59 359 0.9 7.0 0.00 0.00 0.00 31 1018.3
20260501204459 58 166 0.9 5.2 0.00 0.00 0.00 34 1018.1
20260501203726 58 4 0.9 5.2 0.00 0.00 0.00 30 1018.3